User: anonymous   Login
Location: Mount Kobau Star Party
(49.1167°N, 119.7333°W)
Time: 00:01:32
(UTC-08:00)
Language:

TSX-5 - Orbit

View from above orbital plane
View from above orbital plane
View from above satellite
View from above satellite

Ground track
Ground track

The orbit data is extracted from the following two-line orbital elements,

1 26374U 00030A   17017.05735268  .00000448  00000-0  48517-4 0  9992
2 26374  68.9305 144.2750 0646975  86.0704 281.4060 14.04460897834885
Epoch (UTC): 17 January 2017 01:22:35
Eccentricity: 0.0646975
inclination: 68.9305°
perigee height: 409 km
apogee height: 1348 km
right ascension of ascending node: 144.2750°
argument of perigee: 86.0704°
revolutions per day: 14.04460897
mean anomaly at epoch: 281.4060°
orbit number at epoch: 83488

The dashed part of the orbit path shows where the satellite is in the earth's shadow,  

DLR